Showing default

NPSAT1, 44340

Orbit data source: Space-Track

NPSAT1, 44340 is a payload satellite owned by USN PGS (US) in LEO that was launched on Tue, 25 Jun 2019 UTC via an FALCON HEAVY launch vehicle from the Air Force Eastern Test Range (AFETR). Payload-class satellites include a variety of spacecraft equipped with specific instruments for various scientific and technological missions. These include communications satellites like Starlink; space stations such as the ISS; scientific satellites like the Hubble; Earth observation satellites from companies like Planet Labs, Umbra, and HawkEye 360; GPS; miniature CubeSats for education and research; and military/defense satellites.

Not visible in the next 10 days
Identifier
44340, 2019-036B
Orbit
LEO
Country
Flag of USUS
Related business
Manufacturer
USN PGS
Mission
Operational Defense Tech/Sci
Bus & Motor
NPSAT, Unknown motor
Mass
83 kg wet, 83 kg dry
Launch date (UTC)
2019-06-25 (6 years ago)
Launch vehicle
FALCON HEAVY
Launch site
Air Force Eastern Test Range (AFETR)
Object type
Payload
Rocket body
Debris
Shape & HBR
Cyl + 2 Ant, 0.4 m
Radar Cross Section
0.314 m², Medium (>0.1 m² and < 1m²)

Expand to show TLE details & history
Last TLE update: 19 hours ago

TLE from 19 hours ago
0 NPSAT1
1 44340U 19036B   25310.06911873  .00008722  00000-0  13380-2 0  9996
2 44340  23.9990 227.8058 0008187 214.1168 145.8801 14.71462815339559
Epoch: 2025-11-06T01:39Z
TLE epoch observation values (Epoch: 2025-11-06T01:39:31.858Z)
Latitude
-0.00002°
Longitude
157.39029°
Altitude
659.083 km
Speed
7.528 km/s
True Right ascension
15h 11m 13s
True Declination
0° 00' 00"
Sunlit
Object was in daylight at epoch
Visualization orbit readout
Latitude
Unknown
Longitude
Unknown
Altitude
Unknown
Speed
Unknown
Apparent Right ascension
Unknown
Apparent Declination
Unknown
Sunlit
N/A
Visualization observer readout
Local Sidereal Time
16:18:42
Azimuth
Unknown
Elevation
Unknown
Doppler factor
Unknown
Orbital elements
Apogee altitude
666.879 km
Perigee altitude
655.353 km
Semi-major axis
7,039.253 km
Eccentricity
0.00082
Inclination
23.999°
RAAN
227.8058°
Arg. of periapsis
214.1168°
True anomaly
145.93268°
Mean anomaly
145.8801°
Eccentric anomaly
145.90639°
Mean motion
3.67497 °/min
Orbital period
97.96 mins
BSTAR
0.001338
Loading maneuver chart data...
Computing Atmospheric mass density...
Loading historical data...
Loading historical data...
Loading historical data...
Loading historical data...
Loading historical data...
Loading historical data...
Loading historical data...

Documentation

Showing up to 5 results
|